• In France
  • List of Countries
  • For 7 days
  • Water Temperature
  • Satellite Maps
  • Weather Map
  • Weather Widgets
  • user-avatar
    Login

    Hourly Weather Cumiluh

    Today, 22 August, Wednesday

    Time Temperature Precipitation Wind Pressure Humidity
    00:00 +9°C° 0 mm 2 mps 594 mmHg 62%
    01:00 +8°C° 0 mm 2 mps 594 mmHg 61%
    02:00 +8°C° 0 mm 2 mps 594 mmHg 60%
    03:00 +8°C° 0 mm 2 mps 594 mmHg 60%
    04:00 +10°C° 0 mm 1 mps 594 mmHg 60%
    05:00 +10°C° 0 mm 1 mps 594 mmHg 60%
    06:00 +11°C° 0 mm 1 mps 595 mmHg 60%
    07:00 +13°C° 0.1 mm 1 mps 595 mmHg 56%
    08:00 +14°C° 0.1 mm 1 mps 596 mmHg 53%
    09:00 +16°C° 0.1 mm 1 mps 597 mmHg 49%
    10:00 +18°C° 0.1 mm 1 mps 597 mmHg 47%
    11:00 +18°C° 0.1 mm 2 mps 597 mmHg 46%
    12:00 +19°C° 0.1 mm 2 mps 597 mmHg 45%
    13:00 +19°C° 0.1 mm 2 mps 597 mmHg 46%
    14:00 +19°C° 0.1 mm 2 mps 597 mmHg 47%
    15:00 +19°C° 0.1 mm 2 mps 597 mmHg 48%
    16:00 +18°C° 0.2 mm 2 mps 597 mmHg 55%
    17:00 +18°C° 0.2 mm 1 mps 596 mmHg 61%
    18:00 +16°C° 0.2 mm 1 mps 596 mmHg 67%
    19:00 +15°C° 0.1 mm 1 mps 596 mmHg 70%
    20:00 +14°C° 0.1 mm 1 mps 595 mmHg 74%
    21:00 +13°C° 0.1 mm 1 mps 595 mmHg 77%
    22:00 +12°C° 0.1 mm 1 mps 595 mmHg 77%
    23:00 +12°C° 0.1 mm 1 mps 595 mmHg 78%

    Tomorrow, 23 August, Thursday

    Time Temperature Precipitation Wind Pressure Humidity
    00:00 +11°C° 0.1 mm 1 mps 595 mmHg 79%
    01:00 +11°C° 0 mm 1 mps 595 mmHg 79%
    02:00 +10°C° 0 mm 1 mps 595 mmHg 79%
    03:00 +10°C° 0 mm 1 mps 594 mmHg 79%
    04:00 +10°C° 0 mm 1 mps 595 mmHg 78%
    05:00 +11°C° 0 mm 1 mps 595 mmHg 77%
    06:00 +11°C° 0 mm 1 mps 595 mmHg 76%
    07:00 +13°C° 0 mm 1 mps 596 mmHg 69%
    08:00 +15°C° 0 mm 1 mps 597 mmHg 62%
    09:00 +18°C° 0 mm 1 mps 598 mmHg 55%
    10:00 +19°C° 0.1 mm 1 mps 598 mmHg 54%
    11:00 +18°C° 0.1 mm 2 mps 598 mmHg 52%
    12:00 +19°C° 0.1 mm 2 mps 599 mmHg 51%
    13:00 +19°C° 0.1 mm 2 mps 598 mmHg 52%
    14:00 +19°C° 0.1 mm 2 mps 598 mmHg 53%
    15:00 +18°C° 0.1 mm 2 mps 598 mmHg 54%
    16:00 +19°C° 0 mm 1 mps 598 mmHg 57%
    17:00 +18°C° 0 mm 1 mps 598 mmHg 61%
    18:00 +16°C° 0 mm 1 mps 597 mmHg 64%
    19:00 +15°C° 0 mm 1 mps 597 mmHg 67%
    20:00 +13°C° 0 mm 1 mps 597 mmHg 71%
    21:00 +12°C° 0 mm 1 mps 596 mmHg 74%
    22:00 +11°C° 0 mm 1 mps 596 mmHg 74%
    23:00 +11°C° 0 mm 1 mps 596 mmHg 74%

    Day after tomorrow, 24 August, Friday

    Time Temperature Precipitation Wind Pressure Humidity
    00:00 +10°C° 0 mm 1 mps 596 mmHg 75%
    01:00 +10°C° 0 mm 1 mps 596 mmHg 74%
    02:00 +9°C° 0 mm 2 mps 596 mmHg 74%
    03:00 +9°C° 0 mm 2 mps 596 mmHg 73%
    04:00 +9°C° 0 mm 2 mps 596 mmHg 73%
    05:00 +9°C° 0 mm 2 mps 596 mmHg 72%
    06:00 +10°C° 0 mm 2 mps 596 mmHg 72%
    07:00 +13°C° 0 mm 2 mps 597 mmHg 65%
    08:00 +15°C° 0 mm 2 mps 598 mmHg 58%
    09:00 +17°C° 0 mm 2 mps 599 mmHg 51%
    10:00 +18°C° 0 mm 2 mps 599 mmHg 50%
    11:00 +19°C° 0 mm 2 mps 599 mmHg 49%
    12:00 +20°C° 0 mm 3 mps 599 mmHg 47%
    13:00 +20°C° 0.1 mm 3 mps 599 mmHg 48%
    14:00 +20°C° 0.1 mm 3 mps 599 mmHg 49%
    15:00 +20°C° 0.1 mm 3 mps 598 mmHg 50%
    16:00 +19°C° 0.1 mm 2 mps 598 mmHg 54%
    17:00 +17°C° 0.1 mm 2 mps 597 mmHg 59%
    18:00 +16°C° 0.1 mm 1 mps 597 mmHg 63%
    19:00 +15°C° 0 mm 2 mps 596 mmHg 64%
    20:00 +13°C° 0 mm 2 mps 596 mmHg 65%
    21:00 +12°C° 0 mm 2 mps 596 mmHg 66%
    22:00 +10°C° 0 mm 2 mps 595 mmHg 66%
    23:00 +10°C° 0 mm 2 mps 595 mmHg 66%

    25 August, Saturday

    Time Temperature Precipitation Wind Pressure Humidity
    00:00 +10°C° 0 mm 2 mps 595 mmHg 66%
    01:00 +9°C° 0 mm 2 mps 595 mmHg 67%
    02:00 +9°C° 0 mm 2 mps 594 mmHg 69%
    03:00 +9°C° 0 mm 2 mps 594 mmHg 71%
    04:00 +9°C° 0 mm 2 mps 594 mmHg 72%
    05:00 +11°C° 0 mm 1 mps 594 mmHg 72%
    06:00 +11°C° 0 mm 1 mps 594 mmHg 72%
    07:00 +13°C° 0 mm 1 mps 595 mmHg 65%
    08:00 +16°C° 0 mm 1 mps 596 mmHg 58%
    09:00 +19°C° 0 mm 1 mps 597 mmHg 51%
    10:00 +19°C° 0.1 mm 2 mps 597 mmHg 50%
    11:00 +20°C° 0.1 mm 2 mps 597 mmHg 49%
    12:00 +21°C° 0.1 mm 2 mps 597 mmHg 47%
    13:00 +21°C° 0.3 mm 2 mps 597 mmHg 48%
    14:00 +21°C° 0.3 mm 2 mps 597 mmHg 48%
    15:00 +21°C° 0.3 mm 2 mps 597 mmHg 49%
    16:00 +19°C° 0.1 mm 2 mps 596 mmHg 53%
    17:00 +19°C° 0.1 mm 1 mps 596 mmHg 58%
    18:00 +18°C° 0.1 mm 1 mps 595 mmHg 62%
    19:00 +16°C° 0 mm 1 mps 595 mmHg 65%
    20:00 +14°C° 0 mm 1 mps 594 mmHg 69%
    21:00 +13°C° 0 mm 1 mps 594 mmHg 72%
    22:00 +12°C° 0 mm 1 mps 594 mmHg 71%
    23:00 +12°C° 0 mm 1 mps 594 mmHg 70%

    26 August, Sunday

    Time Temperature Precipitation Wind Pressure Humidity
    00:00 +12°C° 0 mm 1 mps 593 mmHg 70%
    01:00 +11°C° 0 mm 1 mps 593 mmHg 68%
    02:00 +11°C° 0 mm 1 mps 593 mmHg 66%
    03:00 +10°C° 0 mm 1 mps 592 mmHg 64%
    04:00 +11°C° 0 mm 1 mps 593 mmHg 61%
    05:00 +11°C° 0 mm 1 mps 593 mmHg 58%
    06:00 +11°C° 0 mm 1 mps 593 mmHg 55%
    07:00 +14°C° 0 mm 1 mps 594 mmHg 50%
    08:00 +16°C° 0 mm 1 mps 595 mmHg 44%
    09:00 +20°C° 0 mm 1 mps 596 mmHg 39%
    10:00 +20°C° 0 mm 2 mps 596 mmHg 39%
    11:00 +21°C° 0 mm 2 mps 596 mmHg 38%
    12:00 +23°C° 0 mm 2 mps 596 mmHg 37%
    13:00 +23°C° 0 mm 2 mps 596 mmHg 37%
    14:00 +23°C° 0 mm 2 mps 596 mmHg 38%
    15:00 +23°C° 0 mm 2 mps 596 mmHg 38%
    16:00 +20°C° 0 mm 2 mps 595 mmHg 42%
    17:00 +19°C° 0 mm 2 mps 595 mmHg 47%
    18:00 +18°C° 0 mm 1 mps 594 mmHg 52%
    19:00 +16°C° 0 mm 1 mps 594 mmHg 53%
    20:00 +14°C° 0 mm 1 mps 593 mmHg 54%
    21:00 +13°C° 0 mm 1 mps 593 mmHg 55%
    22:00 +12°C° 0 mm 2 mps 593 mmHg 51%
    23:00 +12°C° 0 mm 2 mps 592 mmHg 48%

    27 August, Monday

    Time Temperature Precipitation Wind Pressure Humidity
    00:00 +12°C° 0 mm 2 mps 592 mmHg 44%
    01:00 +12°C° 0 mm 2 mps 592 mmHg 44%
    02:00 +11°C° 0 mm 1 mps 592 mmHg 43%
    03:00 +11°C° 0 mm 1 mps 592 mmHg 43%
    04:00 +11°C° 0 mm 1 mps 592 mmHg 46%
    05:00 +12°C° 0 mm 1 mps 592 mmHg 49%
    06:00 +12°C° 0 mm 1 mps 593 mmHg 52%
    07:00 +14°C° 0 mm 1 mps 594 mmHg 48%
    08:00 +16°C° 0 mm 1 mps 594 mmHg 45%
    09:00 +20°C° 0 mm 1 mps 595 mmHg 42%
    10:00 +19°C° 0 mm 2 mps 596 mmHg 41%
    11:00 +20°C° 0 mm 2 mps 596 mmHg 41%
    12:00 +21°C° 0 mm 2 mps 596 mmHg 40%
    13:00 +21°C° 0.5 mm 2 mps 596 mmHg 42%
    14:00 +21°C° 0.5 mm 2 mps 595 mmHg 43%
    15:00 +21°C° 0.5 mm 2 mps 595 mmHg 44%
    16:00 +19°C° 0.3 mm 2 mps 595 mmHg 49%
    17:00 +19°C° 0.3 mm 1 mps 595 mmHg 54%
    18:00 +18°C° 0.3 mm 1 mps 594 mmHg 58%
    19:00 +15°C° 0.1 mm 1 mps 594 mmHg 62%
    20:00 +14°C° 0.1 mm 1 mps 594 mmHg 66%
    21:00 +12°C° 0.1 mm 1 mps 593 mmHg 70%
    22:00 +12°C° 0 mm 1 mps 593 mmHg 69%
    23:00 +11°C° 0 mm 1 mps 593 mmHg 68%
    Show more